QPF
0.06 0.06 0.06 0.07 0.13 0.20 0.23 0.23 0.23 0.17 0.16 0.16 0.17 0.17 0.16 0.15 0.13 0.10 0.09 0.08 0.08 0.08 0.09 0.08 0.07 0.06 0.06 0.06 0.07 0.09 0.09 0.07 0.08 0.08 0.05 0.02 0.01 0.02 0.03 0.04 0.06 0.04 0.02
0.08 0.06 0.08 0.10 0.17 0.23 0.27 0.27 0.21 0.18 0.14 0.15 0.14 0.15 0.16 0.14 0.13 0.11 0.11 0.11 0.13 0.15 0.12 0.09 0.08 0.08 0.07 0.06 0.06 0.07 0.06 0.05 0.08 0.10 0.08 0.04 0.02 0.01 0.01 0.03 0.05 0.05 0.03
0.13 0.07 0.07 0.12 0.20 0.22 0.23 0.22 0.16 0.14 0.14 0.13 0.12 0.10 0.09 0.11 0.14 0.12 0.11 0.10 0.12 0.13 0.13 0.12 0.09 0.08 0.08 0.07 0.07 0.08 0.08 0.09 0.10 0.11 0.09 0.06 0.03 0.01 0.01 0.01 0.02 0.03 0.03
0.12 0.08 0.06 0.09 0.13 0.13 0.17 0.18 0.16 0.13 0.10 0.09 0.08 0.07 0.08 0.07 0.08 0.09 0.09 0.10 0.10 0.10 0.11 0.12 0.13 0.11 0.08 0.07 0.08 0.08 0.07 0.06 0.06 0.06 0.06 0.06 0.06 0.04 0.02 0.01 0.02 0.03 0.03
0.08 0.06 0.05 0.06 0.09 0.11 0.14 0.16 0.11 0.08 0.07 0.06 0.07 0.07 0.07 0.06 0.08 0.09 0.08 0.08 0.09 0.10 0.12 0.14 0.17 0.17 0.12 0.09 0.08 0.07 0.06 0.04 0.03 0.03 0.03 0.04 0.05 0.05 0.03 0.02 0.01 0.01 0.02
0.07 0.07 0.07 0.05 0.08 0.10 0.10 0.09 0.06 0.05 0.05 0.06 0.07 0.07 0.06 0.07 0.07 0.06 0.07 0.08 0.10 0.11 0.12 0.15 0.17 0.15 0.10 0.09 0.08 0.07 0.05 0.03 0.03 0.03 0.03 0.03 0.03 0.04 0.04 0.02 0.02 0.01 0.01
0.11 0.09 0.11 0.11 0.10 0.09 0.08 0.06 0.04 0.04 0.03 0.03 0.05 0.05 0.04 0.05 0.05 0.05 0.08 0.09 0.10 0.09 0.12 0.13 0.11 0.08 0.08 0.08 0.08 0.07 0.05 0.04 0.03 0.03 0.03 0.02 0.02 0.02 0.03 0.03 0.02 0.03 0.03
0.08 0.07 0.07 0.07 0.07 0.08 0.07 0.06 0.04 0.03 0.03 0.02 0.03 0.03 0.04 0.05 0.05 0.07 0.07 0.06 0.06 0.06 0.09 0.09 0.07 0.06 0.07 0.07 0.08 0.09 0.08 0.07 0.05 0.03 0.03 0.02 0.02 0.02 0.02 0.03 0.03 0.03 0.02
0.06 0.06 0.07 0.08 0.11 0.07 0.05 0.04 0.03 0.03 0.03 0.03 0.03 0.03 0.04 0.05 0.06 0.06 0.05 0.05 0.05 0.06 0.07 0.07 0.08 0.08 0.07 0.07 0.07 0.07 0.07 0.07 0.06 0.05 0.05 0.03 0.02 0.02 0.03 0.03 0.03 0.03 0.03
0.07 0.07 0.09 0.12 0.13 0.09 0.05 0.05 0.04 0.03 0.03 0.02 0.04 0.04 0.04 0.05 0.05 0.05 0.04 0.04 0.05 0.07 0.08 0.08 0.09 0.10 0.09 0.08 0.07 0.06 0.05 0.04 0.04 0.04 0.04 0.04 0.03 0.04 0.04 0.03 0.03 0.03 0.03
0.08 0.08 0.06 0.07 0.07 0.08 0.09 0.07 0.04 0.03 0.03 0.03 0.03 0.05 0.07 0.07 0.07 0.06 0.05 0.06 0.07 0.09 0.09 0.09 0.10 0.10 0.08 0.06 0.04 0.03 0.03 0.03 0.03 0.03 0.03 0.02 0.02 0.03 0.03 0.04 0.03 0.03 0.03
0.10 0.09 0.05 0.04 0.03 0.03 0.03 0.03 0.02 0.03 0.03 0.04 0.04 0.05 0.06 0.07 0.07 0.06 0.06 0.06 0.06 0.09 0.12 0.10 0.08 0.08 0.07 0.04 0.03 0.02 0.02 0.02 0.02 0.02 0.02 0.02 0.02 0.02 0.03 0.04 0.04 0.04 0.04
0.07 0.06 0.04 0.03 0.03 0.02 0.02 0.01 0.02 0.02 0.03 0.05 0.06 0.05 0.05 0.05 0.05 0.03 0.03 0.04 0.05 0.07 0.07 0.06 0.07 0.07 0.05 0.05 0.04 0.03 0.02 0.02 0.02 0.02 0.02 0.02 0.02 0.02 0.03 0.03 0.03 0.03 0.03
0.04 0.03 0.03 0.04 0.04 0.02 0.01 0.01 0.02 0.03 0.03 0.03 0.03 0.04 0.03 0.02 0.02 0.02 0.02 0.02 0.03 0.04 0.05 0.05 0.05 0.05 0.04 0.03 0.02 0.01 0.01 0.01 0.01 0.02 0.02 0.02 0.02 0.02 0.02 0.02 0.02 0.02 0.03
0.02 0.02 0.03 0.03 0.04 0.03 0.02 0.02 0.02 0.02 0.02 0.02 0.03 0.03 0.03 0.02 0.01 0.01 0.01 0.01 0.03 0.03 0.04 0.05 0.05 0.04 0.03 0.03 0.02 0.01 0.01 0.01 0.02 0.02 0.02 0.02 0.02 0.02 0.02 0.02 0.02 0.02 0.02
0.03 0.03 0.03 0.03 0.02 0.03 0.03 0.03 0.02 0.03 0.02 0.02 0.03 0.02 0.01 0.01 0.01 0.01 0.01 0.01 0.03 0.05 0.06 0.06 0.06 0.05 0.04 0.03 0.02 0.02 0.01 0.02 0.02 0.03 0.03 0.03 0.03 0.03 0.02 0.02 0.01 0.01 0.02
0.03 0.03 0.04 0.05 0.04 0.04 0.04 0.04 0.03 0.02 0.01 0.01 0.01 0.01 0.01 0.01 0.01 0.00 0.01 0.02 0.03 0.06 0.07 0.07 0.07 0.06 0.05 0.04 0.03 0.02 0.02 0.02 0.02 0.02 0.03 0.03 0.03 0.03 0.03 0.02 0.02 0.02 0.01
0.02 0.03 0.05 0.05 0.04 0.03 0.03 0.03 0.03 0.03 0.01 0.01 0.01 0.01 0.01 0.01 0.00 0.00 0.01 0.03 0.03 0.04 0.05 0.05 0.05 0.05 0.04 0.04 0.04 0.02 0.02 0.02 0.02 0.02 0.02 0.02 0.02 0.02 0.03 0.03 0.02 0.01 0.01
0.02 0.03 0.04 0.03 0.02 0.02 0.02 0.02 0.03 0.03 0.03 0.03 0.02 0.02 0.01 0.01 0.01 0.01 0.01 0.02 0.04 0.03 0.03 0.05 0.05 0.03 0.03 0.04 0.04 0.03 0.02 0.02 0.02 0.02 0.01 0.01 0.01 0.01 0.02 0.03 0.02 0.02 0.02
0.01 0.02 0.02 0.02 0.02 0.02 0.02 0.02 0.02 0.03 0.02 0.03 0.03 0.02 0.01 0.01 0.01 0.01 0.02 0.03 0.03 0.03 0.04 0.05 0.04 0.03 0.03 0.03 0.03 0.02 0.02 0.01 0.01 0.01 0.01 0.02 0.01 0.02 0.02 0.02 0.03 0.03 0.02
0.00 0.01 0.02 0.02 0.02 0.02 0.02 0.02 0.02 0.02 0.01 0.02 0.03 0.04 0.03 0.02 0.03 0.03 0.04 0.05 0.04 0.04 0.03 0.02 0.03 0.02 0.02 0.02 0.02 0.02 0.02 0.02 0.01 0.01 0.01 0.01 0.01 0.01 0.01 0.01 0.02 0.02 0.02
0.01 0.02 0.02 0.02 0.02 0.01 0.02 0.01 0.01 0.01 0.01 0.01 0.03 0.04 0.05 0.04 0.03 0.03 0.03 0.03 0.02 0.02 0.01 0.01 0.02 0.01 0.01 0.01 0.01 0.01 0.01 0.00 0.00 0.00 0.00 0.00 0.01 0.01 0.01 0.00 0.01 0.02 0.02
0.01 0.02 0.01 0.02 0.02 0.02 0.01 0.01 0.01 0.01 0.01 0.01 0.04 0.05 0.05 0.04 0.03 0.02 0.01 0.01 0.01 0.01 0.01 0.01 0.02 0.02 0.01 0.01 0.01 0.00 0.00 0.00 0.00 0.00 0.00 0.00 0.01 0.01 0.01 0.01 0.02 0.02 0.01
0.02 0.02 0.02 0.02 0.02 0.02 0.01 0.01 0.02 0.02 0.02 0.02 0.04 0.05 0.04 0.03 0.03 0.01 0.01 0.00 0.01 0.01 0.01 0.01 0.02 0.02 0.01 0.00 0.00 0.00 0.00 0.00 0.00 0.00 0.00 0.00 0.01 0.01 0.01 0.01 0.01 0.01 0.02
0.03 0.02 0.03 0.03 0.04 0.03 0.02 0.02 0.03 0.03 0.03 0.02 0.03 0.03 0.02 0.01 0.01 0.00 0.00 0.00 0.00 0.01 0.02 0.02 0.02 0.01 0.00 0.00 0.00 0.00 0.00 0.00 0.00 0.00 0.00 0.00 0.00 0.01 0.01 0.01 0.01 0.01 0.01
0.02 0.02 0.02 0.03 0.04 0.04 0.03 0.05 0.04 0.04 0.03 0.02 0.01 0.01 0.01 0.01 0.00 0.00 0.01 0.00 0.00 0.01 0.01 0.01 0.02 0.01 0.01 0.01 0.01 0.00 0.00 0.00 0.00 0.00 0.01 0.01 0.01 0.01 0.01 0.01 0.01 0.02 0.02
MSLP
1007.14 1006.70 1006.26 1005.85 1005.53 1005.35 1005.34 1005.53 1005.88 1006.35 1006.88 1007.39 1007.82 1008.12 1008.29 1008.32 1008.27 1008.17 1008.10 1008.10 1008.21 1008.43 1008.76 1009.17 1009.63 1010.08 1010.51 1010.88 1011.18 1011.41 1011.58 1011.70 1011.79 1011.85 1011.90 1011.92 1011.91 1011.87 1011.80 1011.70 1011.56 1011.42 1011.26
1007.58 1007.10 1006.58 1006.08 1005.67 1005.39 1005.30 1005.42 1005.75 1006.22 1006.77 1007.32 1007.79 1008.11 1008.28 1008.29 1008.19 1008.04 1007.91 1007.87 1007.96 1008.18 1008.53 1008.97 1009.46 1009.92 1010.34 1010.68 1010.93 1011.10 1011.22 1011.30 1011.38 1011.46 1011.53 1011.60 1011.66 1011.66 1011.62 1011.52 1011.37 1011.18 1010.98
1007.68 1007.16 1006.60 1006.05 1005.56 1005.21 1005.06 1005.12 1005.41 1005.88 1006.45 1007.03 1007.54 1007.91 1008.11 1008.14 1008.04 1007.88 1007.76 1007.71 1007.80 1008.04 1008.40 1008.86 1009.34 1009.80 1010.18 1010.48 1010.67 1010.79 1010.86 1010.92 1011.00 1011.11 1011.24 1011.37 1011.47 1011.53 1011.50 1011.40 1011.22 1011.00 1010.74
1007.43 1006.90 1006.34 1005.76 1005.25 1004.86 1004.66 1004.68 1004.95 1005.41 1005.99 1006.60 1007.15 1007.57 1007.82 1007.90 1007.85 1007.74 1007.65 1007.64 1007.75 1008.00 1008.38 1008.83 1009.30 1009.72 1010.05 1010.29 1010.43 1010.50 1010.55 1010.61 1010.70 1010.85 1011.03 1011.21 1011.36 1011.45 1011.44 1011.32 1011.11 1010.83 1010.52
1006.90 1006.40 1005.86 1005.32 1004.83 1004.44 1004.23 1004.24 1004.49 1004.94 1005.52 1006.14 1006.72 1007.20 1007.51 1007.66 1007.69 1007.65 1007.62 1007.66 1007.81 1008.09 1008.46 1008.89 1009.31 1009.68 1009.96 1010.14 1010.23 1010.27 1010.31 1010.37 1010.50 1010.68 1010.90 1011.12 1011.31 1011.41 1011.38 1011.23 1010.98 1010.64 1010.26
1006.22 1005.76 1005.30 1004.85 1004.43 1004.10 1003.92 1003.94 1004.18 1004.61 1005.18 1005.80 1006.40 1006.91 1007.28 1007.50 1007.60 1007.65 1007.69 1007.79 1007.98 1008.27 1008.63 1009.03 1009.40 1009.72 1009.93 1010.05 1010.10 1010.12 1010.14 1010.22 1010.37 1010.58 1010.84 1011.08 1011.27 1011.35 1011.30 1011.11 1010.80 1010.40 1009.96
1005.54 1005.17 1004.83 1004.50 1004.20 1003.96 1003.86 1003.91 1004.15 1004.56 1005.10 1005.71 1006.30 1006.81 1007.22 1007.49 1007.66 1007.78 1007.89 1008.04 1008.26 1008.56 1008.91 1009.26 1009.58 1009.82 1009.98 1010.05 1010.06 1010.06 1010.08 1010.16 1010.32 1010.54 1010.80 1011.04 1011.21 1011.26 1011.16 1010.92 1010.56 1010.11 1009.63
1005.04 1004.78 1004.58 1004.41 1004.26 1004.15 1004.13 1004.24 1004.49 1004.88 1005.38 1005.94 1006.49 1006.99 1007.39 1007.69 1007.90 1008.07 1008.23 1008.43 1008.67 1008.96 1009.28 1009.60 1009.86 1010.04 1010.14 1010.16 1010.13 1010.10 1010.10 1010.18 1010.33 1010.54 1010.77 1010.98 1011.12 1011.12 1010.98 1010.70 1010.29 1009.80 1009.29
1004.87 1004.73 1004.68 1004.67 1004.67 1004.70 1004.78 1004.94 1005.20 1005.57 1006.02 1006.51 1007.00 1007.44 1007.81 1008.10 1008.33 1008.52 1008.72 1008.94 1009.19 1009.48 1009.78 1010.05 1010.27 1010.40 1010.44 1010.41 1010.34 1010.27 1010.25 1010.29 1010.40 1010.58 1010.76 1010.92 1011.00 1010.96 1010.78 1010.46 1010.03 1009.53 1009.01
1005.10 1005.08 1005.17 1005.30 1005.44 1005.60 1005.76 1005.96 1006.23 1006.57 1006.95 1007.36 1007.76 1008.12 1008.44 1008.70 1008.91 1009.11 1009.32 1009.55 1009.82 1010.11 1010.40 1010.64 1010.81 1010.90 1010.89 1010.82 1010.70 1010.59 1010.51 1010.50 1010.56 1010.67 1010.79 1010.89 1010.91 1010.82 1010.61 1010.27 1009.84 1009.35 1008.84
1005.78 1005.86 1006.05 1006.28 1006.52 1006.75 1006.97 1007.20 1007.45 1007.74 1008.04 1008.36 1008.67 1008.95 1009.20 1009.40 1009.59 1009.78 1010.00 1010.25 1010.53 1010.83 1011.11 1011.34 1011.50 1011.55 1011.51 1011.40 1011.23 1011.06 1010.92 1010.84 1010.82 1010.84 1010.88 1010.90 1010.87 1010.74 1010.51 1010.18 1009.76 1009.30 1008.82
1006.84 1006.98 1007.22 1007.50 1007.77 1008.02 1008.26 1008.48 1008.70 1008.93 1009.16 1009.39 1009.61 1009.80 1009.97 1010.13 1010.29 1010.48 1010.70 1010.97 1011.27 1011.59 1011.89 1012.12 1012.28 1012.32 1012.26 1012.10 1011.89 1011.66 1011.45 1011.28 1011.16 1011.10 1011.06 1011.01 1010.91 1010.76 1010.51 1010.19 1009.81 1009.38 1008.94
1008.17 1008.32 1008.55 1008.81 1009.06 1009.28 1009.48 1009.66 1009.83 1009.99 1010.16 1010.31 1010.45 1010.57 1010.68 1010.80 1010.94 1011.13 1011.36 1011.66 1011.99 1012.34 1012.67 1012.92 1013.09 1013.13 1013.06 1012.88 1012.62 1012.33 1012.04 1011.79 1011.59 1011.43 1011.31 1011.18 1011.04 1010.86 1010.61 1010.31 1009.95 1009.56 1009.14
1009.64 1009.75 1009.91 1010.09 1010.25 1010.40 1010.52 1010.64 1010.74 1010.85 1010.95 1011.04 1011.12 1011.20 1011.28 1011.37 1011.50 1011.69 1011.95 1012.27 1012.64 1013.02 1013.38 1013.68 1013.86 1013.92 1013.84 1013.64 1013.35 1013.01 1012.66 1012.33 1012.04 1011.80 1011.60 1011.42 1011.23 1011.02 1010.78 1010.48 1010.14 1009.77 1009.36
1011.06 1011.11 1011.17 1011.22 1011.27 1011.30 1011.34 1011.37 1011.42 1011.47 1011.52 1011.58 1011.63 1011.68 1011.73 1011.82 1011.96 1012.16 1012.44 1012.79 1013.19 1013.61 1014.00 1014.32 1014.52 1014.59 1014.51 1014.30 1013.99 1013.62 1013.21 1012.82 1012.46 1012.15 1011.89 1011.66 1011.43 1011.20 1010.94 1010.65 1010.32 1009.94 1009.54
1012.33 1012.28 1012.22 1012.14 1012.06 1011.97 1011.90 1011.86 1011.86 1011.87 1011.90 1011.95 1011.99 1012.04 1012.10 1012.20 1012.34 1012.56 1012.85 1013.22 1013.64 1014.07 1014.48 1014.81 1015.03 1015.10 1015.03 1014.82 1014.49 1014.09 1013.64 1013.21 1012.80 1012.44 1012.13 1011.86 1011.60 1011.35 1011.07 1010.77 1010.42 1010.04 1009.61
1013.31 1013.18 1013.01 1012.81 1012.60 1012.42 1012.27 1012.18 1012.14 1012.14 1012.17 1012.22 1012.29 1012.36 1012.44 1012.55 1012.71 1012.93 1013.23 1013.60 1014.01 1014.44 1014.84 1015.16 1015.38 1015.45 1015.38 1015.16 1014.82 1014.40 1013.94 1013.47 1013.03 1012.64 1012.29 1011.98 1011.70 1011.42 1011.13 1010.81 1010.44 1010.04 1009.59
1013.97 1013.78 1013.52 1013.23 1012.94 1012.69 1012.50 1012.38 1012.34 1012.36 1012.42 1012.50 1012.60 1012.70 1012.82 1012.95 1013.12 1013.35 1013.64 1013.98 1014.36 1014.76 1015.13 1015.43 1015.62 1015.67 1015.57 1015.34 1015.00 1014.57 1014.10 1013.62 1013.16 1012.75 1012.38 1012.04 1011.74 1011.44 1011.12 1010.78 1010.40 1009.97 1009.50
1014.30 1014.08 1013.78 1013.46 1013.14 1012.87 1012.67 1012.56 1012.54 1012.59 1012.70 1012.83 1012.98 1013.13 1013.28 1013.44 1013.62 1013.84 1014.11 1014.42 1014.76 1015.10 1015.41 1015.65 1015.79 1015.81 1015.69 1015.44 1015.09 1014.66 1014.18 1013.70 1013.24 1012.80 1012.42 1012.07 1011.74 1011.42 1011.09 1010.73 1010.33 1009.89 1009.41
1014.36 1014.16 1013.87 1013.55 1013.24 1012.99 1012.82 1012.74 1012.77 1012.87 1013.04 1013.23 1013.44 1013.64 1013.83 1014.02 1014.21 1014.42 1014.66 1014.93 1015.21 1015.49 1015.73 1015.91 1015.99 1015.96 1015.80 1015.54 1015.17 1014.74 1014.26 1013.78 1013.31 1012.87 1012.47 1012.11 1011.76 1011.42 1011.08 1010.70 1010.30 1009.86 1009.38
1014.24 1014.07 1013.83 1013.56 1013.30 1013.10 1012.98 1012.96 1013.04 1013.20 1013.42 1013.67 1013.93 1014.18 1014.42 1014.64 1014.85 1015.06 1015.28 1015.50 1015.73 1015.94 1016.11 1016.22 1016.23 1016.15 1015.96 1015.68 1015.30 1014.87 1014.39 1013.91 1013.44 1013.00 1012.60 1012.22 1011.85 1011.50 1011.14 1010.76 1010.35 1009.92 1009.46
1014.02 1013.92 1013.75 1013.55 1013.36 1013.22 1013.15 1013.18 1013.31 1013.52 1013.78 1014.08 1014.39 1014.69 1014.98 1015.23 1015.47 1015.68 1015.89 1016.09 1016.27 1016.42 1016.52 1016.57 1016.53 1016.41 1016.19 1015.89 1015.51 1015.08 1014.62 1014.14 1013.68 1013.24 1012.82 1012.42 1012.05 1011.68 1011.30 1010.92 1010.52 1010.09 1009.64
1013.79 1013.77 1013.67 1013.54 1013.42 1013.33 1013.32 1013.38 1013.54 1013.78 1014.07 1014.41 1014.76 1015.10 1015.42 1015.72 1015.98 1016.22 1016.42 1016.61 1016.76 1016.87 1016.92 1016.92 1016.85 1016.69 1016.46 1016.15 1015.78 1015.37 1014.92 1014.47 1014.02 1013.58 1013.16 1012.75 1012.36 1011.97 1011.58 1011.19 1010.78 1010.36 1009.92
1013.61 1013.65 1013.62 1013.56 1013.48 1013.44 1013.45 1013.54 1013.70 1013.94 1014.24 1014.59 1014.96 1015.33 1015.69 1016.03 1016.32 1016.59 1016.81 1016.99 1017.13 1017.22 1017.25 1017.22 1017.12 1016.96 1016.72 1016.43 1016.08 1015.70 1015.29 1014.86 1014.43 1014.01 1013.59 1013.18 1012.77 1012.36 1011.96 1011.54 1011.12 1010.69 1010.24
1013.50 1013.59 1013.62 1013.60 1013.55 1013.52 1013.54 1013.61 1013.76 1013.98 1014.27 1014.62 1014.99 1015.38 1015.77 1016.14 1016.47 1016.76 1017.01 1017.20 1017.34 1017.42 1017.45 1017.40 1017.30 1017.15 1016.93 1016.67 1016.37 1016.03 1015.66 1015.28 1014.89 1014.49 1014.08 1013.66 1013.25 1012.82 1012.39 1011.96 1011.50 1011.04 1010.57
1013.44 1013.57 1013.63 1013.63 1013.60 1013.58 1013.57 1013.62 1013.73 1013.92 1014.18 1014.50 1014.87 1015.26 1015.67 1016.06 1016.43 1016.75 1017.02 1017.23 1017.38 1017.47 1017.50 1017.46 1017.37 1017.23 1017.05 1016.84 1016.59 1016.31 1016.01 1015.69 1015.34 1014.98 1014.60 1014.19 1013.76 1013.32 1012.86 1012.39 1011.90 1011.39 1010.86
Thickness
5731 5731 5731 5729 5727 5726 5725 5721 5718 5717 5715 5714 5713 5711 5709 5709 5710 5709 5708 5706 5705 5702 5699 5697 5695 5692 5688 5686 5684 5683 5681 5680 5680 5677 5675 5678 5680 5681 5680 5680 5679 5678 5678
5723 5724 5723 5722 5720 5720 5719 5716 5713 5711 5711 5710 5709 5708 5706 5704 5703 5703 5703 5702 5700 5698 5696 5692 5690 5687 5684 5681 5679 5677 5675 5674 5674 5669 5664 5663 5666 5672 5675 5674 5673 5672 5671
5717 5718 5718 5717 5716 5715 5714 5713 5710 5709 5708 5707 5706 5704 5701 5699 5697 5697 5697 5697 5696 5694 5692 5687 5685 5683 5680 5675 5674 5672 5670 5667 5667 5665 5660 5655 5654 5658 5664 5666 5666 5665 5664
5716 5716 5716 5714 5712 5712 5711 5708 5707 5706 5705 5704 5701 5698 5695 5692 5693 5693 5692 5692 5691 5690 5687 5684 5681 5679 5675 5672 5670 5669 5667 5664 5660 5659 5658 5656 5653 5649 5651 5655 5657 5657 5657
5712 5711 5712 5712 5710 5709 5707 5705 5703 5702 5701 5700 5697 5694 5692 5690 5690 5689 5687 5686 5685 5684 5682 5680 5676 5673 5670 5668 5665 5664 5662 5659 5656 5653 5651 5650 5647 5645 5642 5643 5646 5648 5649
5708 5707 5708 5707 5705 5705 5703 5701 5699 5697 5697 5695 5693 5690 5688 5686 5684 5683 5681 5680 5679 5678 5677 5675 5672 5669 5666 5664 5661 5659 5657 5654 5652 5649 5646 5643 5640 5637 5635 5634 5635 5637 5640
5703 5702 5701 5701 5700 5699 5698 5697 5695 5692 5692 5691 5689 5687 5685 5683 5680 5678 5676 5674 5672 5671 5670 5669 5666 5664 5662 5659 5657 5655 5652 5649 5646 5643 5640 5638 5635 5633 5630 5627 5626 5627 5630
5698 5698 5698 5698 5696 5695 5694 5692 5690 5688 5687 5686 5685 5683 5681 5679 5677 5675 5672 5670 5668 5667 5666 5663 5661 5659 5657 5655 5653 5650 5647 5644 5641 5639 5635 5632 5630 5628 5625 5621 5619 5617 5618
5694 5694 5694 5694 5693 5692 5690 5689 5687 5685 5683 5682 5680 5679 5677 5674 5672 5670 5669 5666 5664 5663 5662 5659 5657 5655 5654 5651 5648 5645 5642 5639 5635 5632 5629 5626 5624 5621 5619 5616 5613 5608 5606
5692 5691 5691 5690 5690 5689 5687 5686 5684 5682 5680 5678 5676 5675 5672 5670 5667 5666 5663 5661 5660 5658 5656 5654 5653 5651 5649 5646 5643 5640 5637 5633 5629 5626 5622 5619 5617 5614 5611 5608 5605 5601 5598
5688 5688 5688 5688 5686 5685 5683 5682 5680 5678 5676 5675 5673 5670 5667 5665 5663 5660 5658 5656 5654 5653 5651 5650 5648 5646 5644 5641 5638 5634 5631 5627 5623 5620 5616 5613 5610 5606 5603 5600 5596 5592 5589
5686 5685 5684 5683 5682 5680 5679 5678 5676 5674 5672 5671 5669 5666 5663 5660 5657 5655 5654 5653 5650 5649 5647 5645 5643 5641 5639 5636 5632 5628 5625 5621 5617 5614 5610 5606 5603 5599 5595 5591 5587 5584 5581
5683 5681 5680 5679 5679 5678 5677 5675 5673 5670 5669 5667 5664 5661 5658 5657 5654 5652 5650 5649 5646 5644 5643 5641 5638 5636 5633 5630 5627 5623 5619 5616 5612 5608 5603 5599 5595 5591 5587 5583 5578 5575 5573
5680 5678 5676 5676 5676 5675 5674 5672 5669 5668 5666 5664 5661 5658 5656 5654 5652 5650 5647 5645 5642 5640 5638 5636 5634 5631 5628 5625 5622 5618 5614 5610 5606 5602 5597 5593 5589 5584 5580 5576 5571 5568 5564
5676 5675 5674 5673 5672 5671 5670 5669 5667 5665 5664 5661 5658 5656 5654 5652 5650 5648 5645 5642 5639 5637 5634 5632 5629 5626 5623 5620 5616 5613 5609 5604 5599 5595 5590 5587 5583 5580 5575 5570 5565 5560 5555
5673 5673 5672 5670 5669 5668 5667 5665 5664 5663 5661 5658 5656 5655 5653 5650 5647 5645 5642 5639 5636 5633 5631 5628 5625 5622 5619 5616 5612 5608 5602 5597 5592 5587 5583 5580 5576 5572 5568 5564 5561 5556 5550
5670 5669 5669 5668 5667 5666 5666 5663 5662 5660 5658 5656 5655 5653 5651 5648 5645 5643 5639 5636 5633 5630 5627 5623 5620 5617 5613 5610 5606 5602 5597 5591 5585 5581 5576 5575 5570 5565 5561 5557 5555 5551 5547
5668 5668 5667 5667 5666 5665 5664 5662 5660 5657 5656 5654 5652 5651 5648 5645 5642 5639 5636 5633 5630 5627 5623 5620 5616 5612 5609 5605 5601 5596 5590 5584 5579 5574 5570 5566 5562 5559 5554 5550 5547 5543 5541
5668 5667 5667 5666 5665 5663 5662 5660 5657 5655 5653 5651 5650 5649 5647 5643 5640 5637 5634 5631 5628 5624 5620 5617 5613 5608 5605 5601 5596 5591 5584 5578 5573 5569 5565 5561 5556 5554 5550 5545 5540 5537 5534
5668 5667 5666 5665 5662 5661 5660 5656 5654 5652 5651 5650 5649 5648 5646 5643 5640 5636 5633 5630 5626 5622 5618 5614 5609 5605 5600 5596 5592 5586 5579 5573 5568 5564 5561 5557 5553 5549 5545 5539 5534 5531 5529
5667 5666 5663 5661 5660 5659 5657 5653 5652 5651 5651 5650 5649 5647 5645 5642 5639 5635 5632 5628 5625 5620 5615 5611 5607 5602 5598 5593 5589 5583 5575 5569 5563 5559 5555 5552 5549 5546 5542 5537 5532 5529 5526
5664 5663 5660 5658 5658 5657 5655 5651 5650 5651 5651 5649 5647 5645 5643 5641 5638 5634 5630 5627 5623 5618 5613 5608 5603 5599 5595 5591 5586 5580 5574 5568 5560 5555 5551 5548 5545 5542 5538 5534 5531 5527 5523
5661 5660 5657 5655 5655 5655 5653 5650 5650 5650 5649 5647 5645 5642 5640 5638 5635 5632 5627 5624 5620 5616 5611 5605 5601 5597 5593 5588 5584 5578 5572 5566 5558 5553 5549 5546 5542 5539 5535 5532 5528 5524 5519
5658 5657 5655 5652 5652 5652 5653 5651 5651 5650 5648 5645 5642 5639 5637 5634 5632 5629 5626 5622 5618 5614 5610 5604 5599 5594 5590 5585 5580 5575 5569 5564 5557 5551 5547 5543 5539 5535 5532 5528 5524 5520 5516
5656 5654 5652 5650 5650 5651 5651 5651 5650 5648 5645 5642 5640 5637 5635 5632 5628 5626 5624 5621 5619 5615 5610 5604 5598 5593 5589 5585 5580 5573 5567 5561 5555 5549 5543 5538 5534 5530 5527 5524 5520 5517 5513
5653 5651 5650 5649 5649 5649 5649 5650 5649 5647 5643 5640 5637 5635 5632 5629 5626 5624 5621 5621 5618 5615 5611 5606 5601 5596 5591 5586 5580 5574 5568 5562 5556 5547 5540 5535 5530 5527 5523 5520 5517 5513 5510